Location: Lane
(33.5226°N, 79.8788°W)
Time: 20:20:22
(UTC+00:00)

Courier 1B Rocket - Pass Details

Date: 14 October 2022
Orbit: 920 x 1202 km, 28.3° (Epoch: 01 December)

Event Time Altitude Azimuth Distance (km) Brightness Sun altitude
Rises 23:53:22 0° 271° (W) 3,971 10.2 -14.4°
Reaches altitude 10° 23:56:25 10° 264° (W) 2,970 8.9 -15.0°
Maximum altitude 00:03:04 39° 198° (SSW) 1,518 6.1 -16.4°
Enters shadow 00:08:14 15° 135° (SE) 2,445 6.7 -17.5°
Drops below altitude 10° 00:09:17 10° 131° (SE) 2,770 - -17.7°
Sets 00:12:03 0° 124° (ESE) 3,678 - -18.3°
